[[{"header":{"parameterUnit":"m.s-1","parameterCategory":1,"la1":30.2991,"la2":30.254,"lo1":-89.0895,"lo2":-89.0444,"dy":0.0017,"dx":0.0017,"nx":28,"ny":28,"refTime":"2024-04-14T21:00:00:Z","depth":0,"parameterNumber":2,"parameterNumberName":"U-component_of_WINDS"},"data":[0,0,0,0,0,0,0,0,0,0,0,0,0,0,0,0,0,0,0,0,0,0,0,0,0,0,0,0,0,0,0,0,0,0,0,0,0,0,0,0,0,0,0,0,0,0,0,0,0,0,0,0,0,0,0,0,0,0,0.9148,0.9148,0,0.9154,0.9154,0.9154,0.9133,0.9133,0.9132,0.9131,0.9137,0.9138,0.9139,0,0,0,0,0,0,0,0,0,0,0,0,0,0.9117,0.9118,0.9148,0.9148,0.9148,0.9154,0.9154,0.9154,0.9133,0.9133,0.9132,0.9131,0.9137,0.9138,0.9139,0,0,0,0,0,0,0,0,0,0,0,0,0,0.9128,0.9118,0.9148,0.9138,0.9138,0.9154,0.9154,0.9154,0.9134,0.9133,0.9132,0.9131,0.9137,0.9138,0.9139,0.9165,0,0,0.9142,0.9143,0,0,0,0,0,0,0,0,0.9127,0.9129,0.914,0.9139,0.9138,0.9142,0.9145,0.9158,0.9134,0.9135,0.9131,0.913,0.914,0.914,0.9144,0.9165,0.9165,0.9143,0.9143,0.9144,0.9144,0,0,0,0,0,0,0,0.9126,0.9128,0.915,0.914,0.9139,0.9133,0.9134,0.9148,0.9143,0.9135,0.9133,0.9134,0.9139,0.9143,0.9144,0.9165,0.9143,0.9144,0.9144,0.9145,0.9206,0.9207,0,0,0,0,0,0,0.9127,0.9128,0.915,0.915,0.913,0.9135,0.9135,0.9142,0.9142,0.9142,0.9135,0.9133,0.9141,0.9142,0.9144,0.9172,0.9144,0.9145,0.9145,0.9205,0.9206,0.9207,0,0,0,0,0,0,0.9126,0.9129,0.915,0.9139,0.9141,0.9136,0.9144,0.9142,0.9146,0.9143,0.9141,0.914,0.9141,0.9142,0.9159,0.9172,0.9145,0.9146,0.9204,0.9205,0.9206,0.9231,0,0,0,0,0,0,0.9126,0.9129,0.9139,0.9139,0.9142,0.9166,0.9144,0.9143,0.9148,0.9146,0.9147,0.9146,0.914,0.9158,0.916,0.9173,0.9147,0.9202,0.9204,0.9206,0.9229,0.9233,0.9236,0,0,0,0,0,0.9125,0.9146,0.914,0.9143,0.9154,0.9167,0.9168,0.9161,0.9149,0.9159,0.9156,0.9146,0.9171,0.916,0.9162,0.9176,0.9202,0.9204,0.9206,0.9227,0.9232,0.9236,0,0,0,0,0,0,0.9149,0.9146,0.9139,0.9161,0.9164,0.9163,0.9175,0.9166,0.9173,0.917,0.9161,0.9161,0.9179,0.9179,0.9167,0.92,0.9184,0.9187,0.9199,0.9204,0.9208,0.9207,0.9148,0,0,0,0,0,0.9156,0.9167,0.9164,0.9184,0.9186,0.918,0.9185,0.9179,0.9182,0.9183,0.9182,0.9185,0.9193,0.9198,0.9206,0.9229,0.9228,0.9239,0.9243,0.9246,0.9249,0.9259,0.9264,0.9214,0.9214,0.9214,0,0,0.9173,0.9173,0.918,0.9189,0.919,0.92,0.9181,0.9194,0.9201,0.9185,0.92,0.92,0.9202,0.9221,0.923,0.9222,0.9262,0.9249,0.9251,0.9252,0.9262,0.9266,0.9271,0.9215,0.9215,0.9215,0,0,0.9208,0.9209,0.9225,0.9227,0.9229,0.9225,0.9229,0.9228,0.9227,0.9242,0.923,0.9238,0.9253,0.9255,0.9257,0.9291,0.9281,0.9294,0.9313,0.9324,0.9328,0.9331,0.9342,0.9346,0.9296,0.9296,0.9296,0,0.9228,0.9243,0.9235,0.9247,0.9251,0.9236,0.9251,0.9253,0.9258,0.9261,0.9251,0.9268,0.9269,0.9288,0.9296,0.9299,0.9302,0.9293,0.9328,0.9331,0.9334,0.9344,0.9348,0.9298,0.9297,0.9297,0.9297,0,0.9267,0.9278,0.929,0.9294,0.9299,0.9314,0.9306,0.9312,0.9305,0.9302,0.9317,0.9317,0.9323,0.9327,0.9321,0.9345,0.934,0.9329,0.9313,0.934,0.935,0.9354,0.93,0.9299,0.9299,0.9298,0,0,0.9319,0.9316,0.9321,0.9322,0.9322,0.933,0.9343,0.9349,0.9353,0.9357,0.9366,0.9378,0.9368,0.9371,0.9365,0.9374,0.9399,0.9362,0.9362,0.9368,0.9423,0.943,0.9435,0.9392,0.9393,0.9393,0.9423,0,0.9352,0.9374,0.9365,0.9387,0.9396,0.9381,0.9392,0.9393,0.939,0.9396,0.9393,0.9401,0.9388,0.9389,0.9397,0.9394,0.9409,0.9392,0.94,0.9401,0.94,0.944,0.9448,0.9476,0.9426,0.9427,0.9427,0,0.9394,0.9398,0.9421,0.9418,0.9421,0.9431,0.9435,0.9442,0.9442,0.9439,0.9442,0.9433,0.9444,0.9428,0.9443,0.9431,0.9434,0.9432,0.9433,0.9433,0.9415,0.9441,0.9485,0.9489,0.9433,0.9433,0.9432,0,0.9428,0.9439,0.9453,0.9455,0.9452,0.9459,0.9458,0.9458,0.9461,0.9464,0.9466,0.9471,0.9474,0.9477,0.9469,0.9458,0.9484,0.9468,0.9481,0.9482,0.9487,0.9487,0.9532,0.949,0.949,0.949,0.949,0,0.9465,0.948,0.9468,0.9477,0.9492,0.9482,0.9497,0.9494,0.9494,0.9501,0.9489,0.9496,0.9486,0.9492,0.9486,0.9498,0.9499,0.9497,0.9495,0.9497,0.9498,0.9499,0.9496,0.9491,0.9491,0.9491,0.9491,0,0.9506,0.9499,0.9513,0.9509,0.9508,0.9519,0.9515,0.9523,0.9518,0.9528,0.953,0.9522,0.9529,0.9521,0.9527,0.9523,0.9539,0.9535,0.9539,0.9538,0.9551,0.9549,0.9597,0.9603,0.9559,0.9559,0.956,0,0.953,0.954,0.9537,0.9541,0.954,0.9547,0.955,0.954,0.9544,0.9544,0.9551,0.9557,0.956,0.9571,0.9566,0.957,0.9565,0.9581,0.9565,0.9567,0.9564,0.9563,0.9563,0.9585,0.9585,0.9585,0.9586,0,0.9573,0.9569,0.9574,0.9577,0.9581,0.9583,0.9584,0.9588,0.9578,0.9582,0.9588,0.9591,0.9596,0.9601,0.9603,0.9602,0.9592,0.9591,0.9594,0.9596,0.9598,0.9596,0.9547,0.959,0.9589,0.9589,0.9589,0.9589,0.9605,0.9613,0.9611,0.9617,0.9616,0.9617,0.9624,0.962,0.9624,0.9628,0.9621,0.9629,0.9627,0.9629,0.9629,0.9634,0.9627,0.9631,0.9632,0.9634,0.9635,0.9598,0.9634,0.9634,0.9634,0.9634,0.9634,0,0.9647,0.9645,0.965,0.9651,0.9655,0.9645,0.9646,0.9649,0.9656,0.9655,0.9659,0.9665,0.9669,0.9664,0.9667,0.9672,0.9667,0.9673,0.9672,0.9672,0.9642,0.9638,0.9676,0.9676,0.9676,0.9676,0.9676,0.9676,0.9669,0.9681,0.9676,0.9688,0.9685,0.9692,0.9693,0.9693,0.9693,0.97,0.9703,0.97,0.9697,0.9699,0.9702,0.9701,0.9702,0.9709,0.9706,0.9678,0.9674,0.967,0.9667,0.971,0.971,0.9735,0.9735,0.9735]},{"header":{"parameterUnit":"m.s-1","parameterCategory":1,"la1":30.2991,"la2":30.254,"lo1":-89.0895,"lo2":-89.0444,"dy":0.0017,"dx":0.0017,"nx":28,"ny":28,"refTime":"2024-04-14T21:00:00:Z","depth":0,"parameterNumber":3,"parameterNumberName":"V-component_of_WINDS"},"data":[0,0,0,0,0,0,0,0,0,0,0,0,0,0,0,0,0,0,0,0,0,0,0,0,0,0,0,0,0,0,0,0,0,0,0,0,0,0,0,0,0,0,0,0,0,0,0,0,0,0,0,0,0,0,0,0,0,0,3.3031,3.3031,0,3.306,3.306,3.306,3.3053,3.3053,3.3052,3.3051,3.3078,3.3079,3.3081,0,0,0,0,0,0,0,0,0,0,0,0,0,3.2966,3.2967,3.303,3.3031,3.3031,3.306,3.306,3.306,3.3053,3.3053,3.3052,3.3051,3.3078,3.3079,3.3081,0,0,0,0,0,0,0,0,0,0,0,0,0,3.2994,3.2967,3.303,3.3031,3.3032,3.306,3.306,3.3061,3.3053,3.3052,3.3052,3.3051,3.3077,3.3079,3.3081,3.3109,0,0,3.3087,3.3087,0,0,0,0,0,0,0,0,3.2993,3.2997,3.3031,3.3031,3.3032,3.3052,3.3047,3.3077,3.3054,3.3045,3.3051,3.305,3.307,3.3072,3.308,3.311,3.3112,3.3087,3.3088,3.3089,3.3089,0,0,0,0,0,0,0,3.2991,3.2995,3.3042,3.3031,3.3032,3.3029,3.3032,3.3053,3.3062,3.3046,3.3045,3.3049,3.307,3.3078,3.308,3.3112,3.3087,3.3088,3.309,3.309,3.3168,3.3168,0,0,0,0,0,0,3.2989,3.2994,3.3041,3.3043,3.301,3.3031,3.3034,3.3046,3.3061,3.3063,3.305,3.3048,3.3075,3.3078,3.3081,3.3115,3.3089,3.309,3.3091,3.3167,3.3168,3.3169,0,0,0,0,0,0,3.2987,3.2993,3.304,3.3018,3.3024,3.3033,3.3046,3.3047,3.3055,3.3065,3.3066,3.3056,3.3075,3.3078,3.3102,3.3116,3.3091,3.3093,3.3165,3.3167,3.3168,3.3183,0,0,0,0,0,0,3.2986,3.2993,3.3004,3.3019,3.3025,3.3062,3.3047,3.3048,3.3059,3.3057,3.3071,3.3072,3.3074,3.31,3.3104,3.3118,3.3094,3.3164,3.3166,3.3168,3.3182,3.3185,3.3188,0,0,0,0,0,3.2983,3.3006,3.3005,3.301,3.304,3.3062,3.3066,3.3069,3.306,3.3071,3.3077,3.3072,3.3114,3.3102,3.3107,3.3122,3.3163,3.3166,3.3168,3.318,3.3185,3.3188,0,0,0,0,0,0,3.2992,3.3008,3.3006,3.3035,3.3048,3.3061,3.3075,3.3073,3.3087,3.3085,3.3087,3.309,3.3115,3.3121,3.3107,3.315,3.3137,3.314,3.3145,3.3149,3.3152,3.315,3.3096,0,0,0,0,0,3.2997,3.3015,3.3028,3.3052,3.3059,3.3066,3.3076,3.3077,3.3089,3.3094,3.3102,3.3114,3.3129,3.314,3.3155,3.3183,3.3185,3.3195,3.3198,3.3201,3.3204,3.3219,3.3223,3.3176,3.3176,3.3176,0,0,3.3008,3.3019,3.303,3.3054,3.3064,3.3082,3.307,3.3089,3.3102,3.3097,3.312,3.3127,3.3139,3.3166,3.3178,3.3171,3.3218,3.3204,3.3206,3.3207,3.3222,3.3226,3.323,3.3177,3.3177,3.3177,0,0,3.3037,3.3048,3.3069,3.3079,3.3095,3.31,3.3105,3.3119,3.3123,3.3147,3.3144,3.3159,3.3186,3.3195,3.3204,3.3237,3.3233,3.3242,3.3258,3.3273,3.3277,3.328,3.3292,3.3296,3.3245,3.3245,3.3245,0,3.3048,3.3076,3.308,3.31,3.311,3.3107,3.3129,3.3138,3.3157,3.3164,3.3157,3.3192,3.32,3.3229,3.3237,3.3244,3.3249,3.324,3.3276,3.328,3.3283,3.3294,3.3298,3.3246,3.3245,3.3245,3.3245,0,3.3089,3.3108,3.3124,3.3144,3.3156,3.3176,3.3182,3.3194,3.3194,3.3199,3.3224,3.3234,3.3251,3.3258,3.3258,3.3287,3.3282,3.3276,3.3263,3.3288,3.3299,3.3303,3.3247,3.3247,3.3246,3.3246,0,0,3.3123,3.3146,3.3152,3.3161,3.3178,3.3192,3.3212,3.3231,3.324,3.3254,3.327,3.3294,3.3288,3.3298,3.3299,3.3312,3.3338,3.3304,3.3304,3.331,3.337,3.3374,3.3379,3.3335,3.3336,3.3337,3.3369,0,3.3154,3.319,3.3195,3.3227,3.3245,3.3243,3.326,3.3272,3.3278,3.3293,3.3299,3.3315,3.3307,3.3313,3.3326,3.3332,3.335,3.333,3.335,3.3351,3.3346,3.3385,3.3389,3.3419,3.3373,3.3373,3.3374,0,3.3194,3.321,3.3244,3.326,3.3267,3.3283,3.33,3.3315,3.3328,3.3331,3.3343,3.3342,3.3362,3.3349,3.3376,3.3363,3.3371,3.3376,3.3377,3.3378,3.3363,3.3387,3.3428,3.3433,3.3381,3.338,3.338,0,3.3215,3.3245,3.327,3.3278,3.3296,3.3307,3.3315,3.3328,3.3339,3.3353,3.336,3.3377,3.3386,3.3398,3.3402,3.3392,3.3429,3.3416,3.3431,3.3431,3.3439,3.3438,3.3482,3.3445,3.3445,3.3445,3.3445,0,3.3248,3.3269,3.328,3.3295,3.3318,3.3323,3.3345,3.3353,3.3364,3.338,3.3379,3.3394,3.3398,3.3413,3.3416,3.3438,3.3442,3.3445,3.3445,3.3445,3.3445,3.345,3.3448,3.3446,3.3446,3.3445,3.3445,0,3.3276,3.3284,3.331,3.3326,3.3331,3.3347,3.336,3.3374,3.338,3.34,3.3405,3.3414,3.3432,3.3437,3.3458,3.346,3.3486,3.3485,3.3482,3.3482,3.3497,3.3496,3.3545,3.3552,3.3511,3.3512,3.3512,0,3.3296,3.3313,3.3331,3.3342,3.3351,3.3369,3.338,3.3385,3.3397,3.3414,3.3426,3.3444,3.3459,3.3487,3.3495,3.3511,3.351,3.3527,3.3512,3.3512,3.351,3.3509,3.351,3.3529,3.3529,3.353,3.353,0,3.3332,3.3335,3.3352,3.3371,3.3385,3.3399,3.3413,3.3422,3.3429,3.3442,3.3461,3.3473,3.3495,3.3513,3.353,3.3537,3.3534,3.3535,3.3539,3.3538,3.3536,3.3537,3.3489,3.3533,3.3533,3.3533,3.3532,3.3532,3.3356,3.3371,3.3386,3.3405,3.3416,3.343,3.3444,3.3452,3.3469,3.3488,3.349,3.351,3.3523,3.3546,3.3554,3.357,3.3565,3.3571,3.3573,3.3574,3.3575,3.3534,3.3573,3.3573,3.3573,3.3572,3.3572,0,3.3391,3.3401,3.3419,3.3439,3.3454,3.3452,3.3468,3.348,3.3498,3.3511,3.3526,3.3548,3.3566,3.3575,3.3592,3.3603,3.3602,3.3607,3.3606,3.3608,3.3579,3.3573,3.3608,3.3608,3.3608,3.3608,3.3608,3.3608,3.3411,3.3436,3.3441,3.3472,3.3481,3.3502,3.3511,3.3523,3.3534,3.3559,3.3574,3.358,3.3592,3.361,3.3626,3.3628,3.3634,3.364,3.3641,3.3614,3.361,3.3607,3.3601,3.3641,3.3641,3.3669,3.367,3.367]}]]